EW4427 Weather Reports


time (UTC)temp
F
wind
direction
speed
knots
gust
knots
rain 1hr
in
rain 24hr
in
rain mn
in
humidity
%
barometer
mb
20240723043045 68 183 0.9 3.5 0.00 0.00 0.00 80 1015.9
20240723042547 68 180 0.9 4.3 0.00 0.00 0.00 80 1015.9
20240723042046 68 180 1.7 4.3 0.00 0.00 0.00 79 1015.9
20240723041545 68 183 1.7 3.5 0.00 0.00 0.00 79 1015.7
20240723041046 68 174 0.9 3.5 0.00 0.00 0.00 79 1015.7
20240723040547 68 0 0.0 3.5 0.00 0.00 0.00 78 1015.7
20240723040054 68 0 0.0 3.5 0.00 0.00 0.00 78 1015.8
20240723035545 68 0 0.9 3.5 0.00 0.00 0.00 78 1015.7
20240723035047 68 0 0.9 2.6 0.00 0.00 0.00 78 1015.7
20240723034549 68 0 0.0 2.6 0.00 0.00 0.00 78 1015.8
20240723034050 68 182 0.9 3.5 0.00 0.00 0.00 79 1015.6
20240723033549 68 186 0.9 3.5 0.00 0.00 0.00 78 1015.7
20240723033045 68 180 0.9 2.6 0.00 0.00 0.00 78 1015.6
20240723032545 68 0 0.0 1.7 0.00 0.00 0.00 77 1015.7
20240723032050 68 180 0.9 1.7 0.00 0.00 0.00 77 1015.6
20240723031548 68 0 0.0 0.9 0.00 0.00 0.00 73 1015.6
20240723031045 68 0 0.0 0.9 0.00 0.00 0.00 73 1015.7
20240723030545 68 0 0.0 0.9 0.00 0.00 0.00 73 1015.7
20240723030049 68 0 0.0 0.9 0.00 0.00 0.00 73 1015.7
20240723025545 68 0 0.0 0.0 0.00 0.00 0.00 72 1015.7
20240723025046 69 0 0.0 0.0 0.00 0.00 0.00 72 1015.7
20240723024546 69 0 0.0 0.0 0.00 0.00 0.00 73 1015.8
20240723024045 69 0 0.0 0.9 0.00 0.00 0.00 72 1015.8
20240723023545 69 0 0.0 0.9 0.00 0.00 0.00 71 1015.8
20240723023102 69 154 0.0 0.9 0.00 0.00 0.00 71 1015.7
20240723022548 70 0 0.0 0.0 0.00 0.00 0.00 70 1015.7
20240723022046 70 0 0.0 0.0 0.00 0.00 0.00 69 1015.8
20240723021549 70 0 0.0 0.0 0.00 0.00 0.00 69 1015.7
20240723021046 70 0 0.0 0.0 0.00 0.00 0.00 68 1015.6
20240723020550 71 0 0.0 0.0 0.00 0.00 0.00 69 1015.6
20240723020126 71 0 0.0 0.0 0.00 0.00 0.00 68 1015.5
20240723015546 71 0 0.0 0.0 0.00 0.00 0.00 67 1015.5
20240723015046 72 0 0.0 0.0 0.00 0.00 0.00 66 1015.3
20240723014549 72 0 0.0 0.0 0.00 0.00 0.00 66 1015.3
20240723014045 72 0 0.0 0.0 0.00 0.00 0.00 65 1015.2
20240723013546 73 0 0.0 0.0 0.00 0.00 0.00 65 1015.1
20240723013050 73 0 0.0 0.9 0.00 0.00 0.00 64 1015.2
20240723012546 73 0 0.0 0.9 0.00 0.00 0.00 63 1015.3
20240723012050 73 0 0.0 0.9 0.00 0.00 0.00 62 1015.3
20240723011548 74 0 0.0 0.9 0.00 0.00 0.00 62 1015.3
20240723011049 74 0 0.0 0.9 0.00 0.00 0.00 62 1015.3
20240723010545 74 0 0.0 0.9 0.00 0.00 0.00 62 1015.3
20240723010052 74 0 0.0 1.7 0.00 0.00 0.00 62 1015.3
20240723005549 74 0 0.0 2.6 0.00 0.00 0.00 62 1015.2
20240723005045 75 0 0.0 2.6 0.00 0.00 0.00 64 1015.2
20240723004550 75 0 0.0 3.5 0.00 0.00 0.00 63 1015.1
20240723004050 75 185 0.0 3.5 0.00 0.00 0.00 62 1015.1
20240723003545 76 192 0.0 0.9 0.00 0.00 0.00 61 1015.1
20240723003053 76 0 0.0 1.7 0.00 0.00 0.00 60 1015.0
20240723002544 76 153 0.0 1.7 0.00 0.00 0.00 59 1015.0
20240723002044 77 0 0.0 0.9 0.00 0.00 0.00 60 1014.9
20240723001549 77 0 0.0 1.7 0.00 0.00 0.00 58 1015.0
20240723001045 77 0 0.0 2.6 0.00 0.00 0.00 57 1014.9
20240723000547 77 126 0.0 2.6 0.00 0.00 0.00 57 1014.9
20240723000051 78 180 0.0 2.6 0.00 0.00 0.00 59 1014.9
20240722235546 78 173 0.0 2.6 0.00 0.00 0.00 57 1014.9
20240722235045 78 192 0.9 2.6 0.00 0.00 0.00 58 1014.8
20240722234545 79 164 0.0 1.7 0.00 0.00 0.00 57 1014.8
20240722234044 79 0 0.0 1.7 0.00 0.00 0.00 58 1014.7
20240722233547 79 0 0.0 0.9 0.00 0.00 0.00 58 1014.7
20240722233050 79 0 0.0 0.9 0.00 0.00 0.00 58 1014.7
20240722232544 79 0 0.0 1.7 0.00 0.00 0.00 58 1014.6
20240722232046 79 0 0.0 1.7 0.00 0.00 0.00 58 1014.6
20240722231546 79 169 0.0 0.9 0.00 0.00 0.00 57 1014.6
20240722231046 80 0 0.0 1.7 0.00 0.00 0.00 56 1014.6
20240722230545 80 0 0.0 1.7 0.00 0.00 0.00 56 1014.6
20240722230048 80 0 0.0 1.7 0.00 0.00 0.00 55 1014.7
20240722225546 80 0 0.0 0.9 0.00 0.00 0.00 55 1014.6
20240722225045 80 0 0.0 0.9 0.00 0.00 0.00 55 1014.6
20240722224548 80 0 0.0 5.2 0.00 0.00 0.00 55 1014.7
20240722224046 80 0 0.9 5.2 0.00 0.00 0.00 55 1014.9
20240722223545 81 180 0.0 1.7 0.00 0.00 0.00 55 1014.7
20240722223046 81 190 0.0 0.9 0.00 0.00 0.00 54 1014.8
20240722222545 81 0 0.0 0.9 0.00 0.00 0.00 54 1014.9
20240722222045 81 0 0.0 2.6 0.00 0.00 0.00 53 1014.9
20240722221553 82 0 0.0 2.6 0.00 0.00 0.00 53 1014.9
20240722221045 82 0 0.9 2.6 0.00 0.00 0.00 51 1015.0
20240722220546 82 0 0.0 5.2 0.00 0.00 0.00 51 1015.0
20240722220105 83 0 0.9 5.2 0.00 0.00 0.00 54 1015.1
20240722215544 83 178 0.0 2.6 0.00 0.00 0.00 50 1015.1
20240722215045 84 0 0.0 1.7 0.00 0.00 0.00 49 1015.2
20240722214549 84 0 0.0 1.7 0.00 0.00 0.00 48 1015.3
20240722214045 85 0 0.0 4.3 0.00 0.00 0.00 47 1015.3
20240722213546 85 0 1.7 4.3 0.00 0.00 0.00 48 1015.3
20240722213048 85 189 0.9 3.5 0.00 0.00 0.00 49 1015.4
20240722212545 86 0 0.0 2.6 0.00 0.00 0.00 47 1015.3
20240722212046 86 169 0.0 2.6 0.00 0.00 0.00 46 1015.4
20240722211555 86 0 0.0 2.6 0.00 0.00 0.00 47 1015.4
20240722211049 86 0 0.0 2.6 0.00 0.00 0.00 46 1015.5
20240722210545 87 0 0.0 2.6 0.00 0.00 0.00 47 1015.5
20240722210052 87 191 0.0 2.6 0.00 0.00 0.00 48 1015.5
20240722205547 86 0 0.0 2.6 0.00 0.00 0.00 48 1015.5
20240722205045 86 0 0.0 3.5 0.00 0.00 0.00 49 1015.5
20240722204549 86 167 0.9 3.5 0.00 0.00 0.00 50 1015.6
20240722204045 86 0 0.0 1.7 0.00 0.00 0.00 48 1015.7
20240722203545 86 0 0.0 1.7 0.00 0.00 0.00 51 1015.6
20240722203059 85 0 0.0 1.7 0.00 0.00 0.00 50 1015.8
20240722202545 85 169 0.0 1.7 0.00 0.00 0.00 51 1015.8
20240722202044 85 0 0.0 1.7 0.00 0.00 0.00 49 1016.1
20240722201549 85 12 0.0 1.7 0.00 0.00 0.00 48 1016.3
20240722201045 85 0 0.0 1.7 0.00 0.00 0.00 50 1016.3
20240722200546 85 188 0.0 2.6 0.00 0.00 0.00 47 1016.3
20240722200046 85 217 0.9 2.6 0.00 0.00 0.00 48 1016.4
20240722195546 85 0 0.0 1.7 0.00 0.00 0.00 48 1016.5
20240722195045 85 0 0.0 0.9 0.00 0.00 0.00 51 1016.5
20240722194558 84 0 0.0 1.7 0.00 0.00 0.00 52 1016.5
20240722194049 84 0 0.0 1.7 0.00 0.00 0.00 49 1016.6
20240722193545 84 0 0.0 1.7 0.00 0.00 0.00 50 1016.6
20240722193048 84 175 0.9 3.5 0.00 0.00 0.00 51 1016.7
20240722192545 84 173 0.9 3.5 0.00 0.00 0.00 53 1016.8
20240722192044 83 180 0.0 2.6 0.00 0.00 0.00 53 1016.7
20240722191551 83 0 0.9 2.6 0.00 0.00 0.00 52 1016.7
20240722191045 82 169 0.0 2.6 0.00 0.00 0.00 52 1016.8
20240722190546 82 165 0.9 2.6 0.00 0.00 0.00 53 1016.9
20240722190050 81 171 0.0 2.6 0.00 0.00 0.00 54 1016.9
20240722185544 80 0 0.0 2.6 0.00 0.00 0.00 53 1016.9
20240722185045 80 0 0.0 1.7 0.00 0.00 0.00 54 1016.9
20240722184549 79 0 0.0 3.5 0.00 0.00 0.00 56 1017.0
20240722184047 79 0 0.0 3.5 0.00 0.00 0.00 53 1017.0
20240722183546 79 355 0.0 3.5 0.00 0.00 0.00 55 1017.0
20240722183050 79 0 0.0 3.5 0.00 0.00 0.00 56 1017.1
20240722182548 79 351 0.0 1.7 0.00 0.00 0.00 56 1017.1
20240722182045 79 0 0.0 3.5 0.00 0.00 0.00 55 1017.1
20240722181553 79 0 0.9 3.5 0.00 0.00 0.00 58 1017.0
20240722181046 79 181 0.9 3.5 0.00 0.00 0.00 57 1017.0
20240722180547 78 192 0.9 3.5 0.00 0.00 0.00 59 1017.0
20240722180051 78 0 0.0 1.7 0.00 0.00 0.00 57 1017.0
20240722175545 78 0 0.0 2.6 0.00 0.00 0.00 56 1017.1
20240722175045 78 0 0.0 2.6 0.00 0.00 0.00 56 1017.1
20240722174604 77 0 0.0 1.7 0.00 0.00 0.00 58 1017.1
20240722174049 77 0 0.0 2.6 0.00 0.00 0.00 55 1017.2
20240722173546 77 0 0.0 2.6 0.00 0.00 0.00 54 1017.3
20240722173045 77 24 0.0 3.5 0.00 0.00 0.00 54 1017.3
20240722172544 77 0 0.9 3.5 0.00 0.00 0.00 53 1017.3
20240722172045 76 19 0.9 3.5 0.00 0.00 0.00 53 1017.3
20240722171554 76 76 0.9 3.5 0.00 0.00 0.00 52 1017.5
20240722171044 76 31 0.9 3.5 0.00 0.00 0.00 51 1017.4
20240722170545 76 40 0.0 1.7 0.00 0.00 0.00 55 1017.5
20240722170050 76 0 0.0 2.6 0.00 0.00 0.00 57 1017.7
20240722165545 76 0 0.0 2.6 0.00 0.00 0.00 56 1017.7
20240722165047 75 355 0.0 3.5 0.00 0.00 0.00 55 1017.7
20240722164622 75 42 0.0 3.5 0.00 0.00 0.00 60 1017.8
20240722164049 75 57 0.0 2.6 0.00 0.00 0.00 61 1017.8
20240722163545 74 0 0.0 2.6 0.00 0.00 0.00 63 1017.8
20240722163103 74 0 0.0 1.7 0.00 0.00 0.00 63 1017.7
20240722162545 74 13 0.0 3.5 0.00 0.00 0.00 65 1017.8
20240722162048 74 5 0.0 3.5 0.00 0.00 0.00 66 1017.8
20240722161553 73 26 0.9 3.5 0.00 0.00 0.00 66 1017.7
20240722161044 73 0 0.0 1.7 0.00 0.00 0.00 69 1017.8
20240722160545 73 46 0.0 2.6 0.00 0.00 0.00 68 1017.8
20240722160050 73 0 0.0 2.6 0.00 0.00 0.00 68 1017.8
20240722155544 72 0 0.0 1.7 0.00 0.00 0.00 70 1017.8
20240722155047 72 174 0.0 1.7 0.00 0.00 0.00 70 1017.8
20240722154550 72 0 0.0 1.7 0.00 0.00 0.00 69 1017.7
20240722154044 72 0 0.0 1.7 0.00 0.00 0.00 70 1017.8
20240722153545 71 138 0.0 0.9 0.00 0.00 0.00 71 1017.8
20240722153046 71 0 0.0 1.7 0.00 0.00 0.00 73 1017.8
20240722152545 71 0 0.0 2.6 0.00 0.00 0.00 72 1017.8
20240722152044 71 349 0.0 2.6 0.00 0.00 0.00 72 1017.7
20240722151546 71 0 0.0 1.7 0.00 0.00 0.00 73 1017.8
20240722151045 70 0 0.0 0.9 0.00 0.00 0.00 75 1017.8
20240722150545 70 0 0.0 2.6 0.00 0.00 0.00 75 1017.7
20240722150049 70 0 0.0 2.6 0.00 0.00 0.00 74 1017.7
20240722145545 70 0 0.0 1.7 0.00 0.00 0.00 77 1017.6
20240722145046 70 0 0.0 1.7 0.00 0.00 0.00 77 1017.7
20240722144638 69 0 0.0 1.7 0.00 0.00 0.00 76 1017.7
20240722144045 69 0 0.0 1.7 0.00 0.00 0.00 78 1017.7
20240722143545 69 0 0.0 1.7 0.00 0.00 0.00 78 1017.7
20240722143102 69 0 0.0 1.7 0.00 0.00 0.00 80 1017.7
20240722142545 68 0 0.0 0.9 0.00 0.00 0.00 81 1017.7
20240722142045 68 0 0.0 1.7 0.00 0.00 0.00 81 1017.9
20240722141551 68 0 0.0 1.7 0.00 0.00 0.00 82 1017.9
20240722141047 68 27 0.0 0.9 0.00 0.00 0.00 82 1017.8
20240722140544 67 0 0.0 2.6 0.00 0.00 0.00 81 1017.9
20240722140047 67 0 0.0 4.3 0.00 0.00 0.00 82 1017.8
20240722135547 67 0 0.0 4.3 0.00 0.00 0.00 85 1017.9
20240722135044 66 360 0.9 4.3 0.00 0.00 0.00 85 1017.9
20240722134548 66 21 0.0 2.6 0.00 0.00 0.00 88 1017.9
20240722134044 66 0 0.0 3.5 0.00 0.00 0.00 89 1017.9
20240722133549 65 0 0.9 3.5 0.00 0.00 0.00 91 1017.9
20240722133055 65 5 0.9 2.6 0.00 0.00 0.00 93 1017.9
20240722132545 65 15 0.0 2.6 0.00 0.00 0.00 94 1018.0
20240722132045 65 0 0.9 2.6 0.00 0.00 0.00 94 1018.1
20240722131550 65 19 0.0 1.7 0.00 0.00 0.00 95 1018.1
20240722131045 64 0 0.0 1.7 0.00 0.00 0.00 95 1018.0
20240722130546 64 0 0.0 1.7 0.00 0.00 0.00 95 1018.0
20240722130054 64 0 0.0 2.6 0.00 0.00 0.00 95 1017.9
20240722125545 64 19 0.9 2.6 0.00 0.00 0.00 95 1018.0
20240722125049 64 28 0.9 2.6 0.00 0.00 0.00 95 1017.9
20240722124545 63 0 0.0 1.7 0.00 0.00 0.00 95 1017.8
20240722124044 63 24 0.0 1.7 0.00 0.00 0.00 95 1017.8
20240722123547 63 37 0.0 1.7 0.00 0.00 0.00 95 1017.8
20240722123050 63 0 0.0 1.7 0.00 0.00 0.00 95 1017.8
20240722122546 62 29 0.0 1.7 0.00 0.00 0.00 95 1017.7
20240722122044 62 36 0.0 0.9 0.00 0.00 0.00 95 1017.8
20240722121553 62 0 0.0 0.9 0.00 0.00 0.00 94 1017.8
20240722121047 61 0 0.0 0.9 0.00 0.00 0.00 94 1017.7
20240722120544 61 0 0.0 0.0 0.00 0.00 0.00 94 1017.7
20240722120108 61 0 0.0 0.0 0.00 0.00 0.00 94 1017.6
20240722115548 61 0 0.0 0.0 0.00 0.00 0.00 94 1017.7
20240722115045 61 0 0.0 0.9 0.00 0.00 0.00 94 1017.7
20240722114551 61 0 0.0 0.9 0.00 0.00 0.00 94 1017.6
20240722114045 61 0 0.0 0.9 0.00 0.00 0.00 94 1017.6
20240722113545 61 0 0.0 0.9 0.00 0.00 0.00 94 1017.6
20240722113057 61 0 0.0 0.9 0.00 0.00 0.00 94 1017.5
20240722112547 61 0 0.0 0.9 0.00 0.00 0.00 93 1017.6
20240722112042 61 0 0.0 1.7 0.00 0.00 0.00 93 1017.7
20240722111555 61 0 0.0 1.7 0.00 0.00 0.00 93 1017.7
20240722111045 61 0 0.0 0.9 0.00 0.00 0.00 93 1017.7
20240722110547 61 0 0.0 0.9 0.00 0.00 0.00 93 1017.6
20240722110049 61 0 0.0 0.9 0.00 0.00 0.00 93 1017.5
20240722105542 61 0 0.0 1.7 0.00 0.00 0.00 93 1017.5
20240722105048 61 0 0.0 1.7 0.00 0.00 0.00 93 1017.5
20240722104551 61 0 0.0 1.7 0.00 0.00 0.00 93 1017.5
20240722104046 61 0 0.0 1.7 0.00 0.00 0.00 93 1017.5
20240722103546 61 5 0.0 1.7 0.00 0.00 0.00 93 1017.5
20240722103046 61 0 0.0 0.9 0.00 0.00 0.00 92 1017.5
20240722102545 61 0 0.0 0.9 0.00 0.00 0.00 92 1017.5
20240722102044 61 0 0.0 0.9 0.00 0.00 0.00 92 1017.5
20240722101546 61 21 0.0 0.9 0.00 0.00 0.00 92 1017.6
20240722101044 61 0 0.0 0.0 0.00 0.00 0.00 92 1017.7
20240722100545 61 0 0.0 0.0 0.00 0.00 0.00 92 1017.6
20240722100100 61 0 0.0 0.0 0.00 0.00 0.00 92 1017.7
20240722095545 61 0 0.0 0.0 0.00 0.00 0.00 92 1017.7
20240722095044 61 0 0.0 0.9 0.00 0.00 0.00 92 1017.7
20240722094549 61 0 0.0 0.9 0.00 0.00 0.00 92 1017.7
20240722094044 61 0 0.0 0.9 0.00 0.00 0.00 91 1017.7
20240722093546 61 0 0.0 0.9 0.00 0.00 0.00 91 1017.6
20240722093053 61 0 0.0 0.9 0.00 0.00 0.00 91 1017.7
20240722092545 61 0 0.0 0.0 0.00 0.00 0.00 91 1017.5
20240722092044 61 0 0.0 0.0 0.00 0.00 0.00 91 1017.7
20240722091547 61 0 0.0 0.0 0.00 0.00 0.00 91 1017.7
20240722091045 61 0 0.0 0.0 0.00 0.00 0.00 91 1017.5
20240722090545 61 0 0.0 0.0 0.00 0.00 0.00 91 1017.5
20240722090050 61 0 0.0 0.9 0.00 0.00 0.00 92 1017.5
20240722085543 61 0 0.0 0.9 0.00 0.00 0.00 92 1017.5
20240722085045 61 0 0.0 0.9 0.00 0.00 0.00 92 1017.6
20240722084545 61 21 0.0 0.9 0.00 0.00 0.00 91 1017.5
20240722084044 61 0 0.0 0.0 0.00 0.00 0.00 91 1017.6
20240722083545 61 0 0.0 0.0 0.00 0.00 0.00 91 1017.8
20240722083052 61 0 0.0 0.0 0.00 0.00 0.00 91 1017.8
20240722082547 61 0 0.0 0.9 0.00 0.00 0.00 91 1017.7
20240722082044 61 0 0.0 0.9 0.00 0.00 0.00 91 1017.9
20240722081557 61 21 0.0 0.9 0.00 0.00 0.00 91 1017.9
20240722081044 61 0 0.0 0.9 0.00 0.00 0.00 91 1017.9
20240722080547 61 0 0.0 0.9 0.00 0.00 0.00 90 1018.0
20240722080050 61 0 0.0 0.0 0.00 0.00 0.00 90 1018.0
20240722075544 61 0 0.0 0.0 0.00 0.00 0.00 90 1018.0
20240722075047 61 0 0.0 0.0 0.00 0.00 0.00 90 1017.9
20240722074548 61 0 0.0 0.0 0.00 0.00 0.00 90 1017.9
20240722074045 61 0 0.0 0.0 0.00 0.00 0.00 90 1017.9
20240722073549 62 0 0.0 0.0 0.00 0.00 0.00 89 1018.0
20240722073047 62 0 0.0 0.0 0.00 0.00 0.00 89 1018.0
20240722072544 62 0 0.0 0.9 0.00 0.00 0.00 89 1018.0
20240722072044 62 0 0.0 0.9 0.00 0.00 0.00 89 1018.0
20240722071556 62 0 0.0 0.0 0.00 0.00 0.00 89 1017.9
20240722071044 62 0 0.0 0.0 0.00 0.00 0.00 88 1018.1
20240722070544 62 0 0.0 0.9 0.00 0.00 0.00 88 1017.9
20240722070049 62 0 0.0 0.9 0.00 0.00 0.00 88 1018.1
20240722065544 62 0 0.0 0.9 0.00 0.00 0.00 88 1018.2
20240722065044 62 0 0.0 0.9 0.00 0.00 0.00 88 1018.3
20240722064550 62 0 0.0 0.0 0.00 0.00 0.00 88 1018.4
20240722064047 62 0 0.0 0.0 0.00 0.00 0.00 88 1018.5
20240722063544 62 0 0.0 0.0 0.00 0.00 0.00 88 1018.5
20240722063057 62 0 0.0 0.9 0.00 0.00 0.00 88 1018.6
20240722062544 62 0 0.0 0.9 0.00 0.00 0.00 88 1018.6
20240722062044 63 0 0.0 0.9 0.00 0.00 0.00 87 1018.6
20240722061548 63 0 0.0 0.0 0.00 0.00 0.00 87 1018.8
20240722061044 63 0 0.0 0.0 0.00 0.00 0.00 87 1018.7
20240722060546 63 0 0.0 0.0 0.00 0.00 0.00 86 1018.8
20240722060050 63 0 0.0 0.0 0.00 0.00 0.00 86 1018.7
20240722055546 63 0 0.0 0.0 0.00 0.00 0.00 87 1018.8
20240722055047 63 0 0.0 0.0 0.00 0.00 0.00 87 1018.9
20240722054613 63 0 0.0 0.0 0.00 0.00 0.00 87 1018.8
20240722054044 63 0 0.0 0.9 0.00 0.00 0.00 87 1018.8
20240722053544 64 0 0.0 0.9 0.00 0.00 0.00 87 1018.9
20240722053047 64 0 0.0 0.9 0.00 0.00 0.00 87 1018.9
20240722052545 64 0 0.0 0.9 0.00 0.00 0.00 87 1018.9
20240722052044 64 0 0.0 0.9 0.00 0.00 0.00 86 1019.1
20240722051553 64 0 0.0 0.9 0.00 0.00 0.00 86 1018.8
20240722051047 64 0 0.0 0.9 0.00 0.00 0.00 84 1018.9
20240722050549 64 0 0.0 0.0 0.00 0.00 0.00 84 1019.0
20240722050048 64 0 0.0 0.0 0.00 0.00 0.00 83 1018.9
20240722045546 64 0 0.0 0.0 0.00 0.00 0.00 82 1018.8
20240722045048 64 0 0.0 0.0 0.00 0.00 0.00 82 1018.8
20240722044547 64 0 0.0 0.0 0.00 0.00 0.00 82 1018.9
20240722044046 65 0 0.0 0.0 0.00 0.00 0.00 82 1018.8
20240722043546 65 0 0.0 0.0 0.00 0.00 0.00 82 1019.1